QPF
0.01 0.02 0.02 0.03 0.04 0.04 0.05 0.04 0.05 0.05 0.06 0.06 0.05 0.04 0.04 0.05 0.06 0.05 0.05 0.06 0.05 0.05 0.04 0.05 0.04 0.04 0.04 0.03 0.02 0.03 0.03 0.05 0.05 0.02 0.02 0.02 0.02 0.02 0.03 0.03 0.03 0.03 0.02
0.01 0.02 0.02 0.03 0.04 0.05 0.05 0.05 0.06 0.07 0.06 0.04 0.03 0.03 0.03 0.05 0.05 0.05 0.05 0.04 0.04 0.04 0.06 0.06 0.05 0.05 0.06 0.04 0.03 0.03 0.04 0.05 0.04 0.02 0.02 0.02 0.03 0.02 0.02 0.02 0.02 0.02 0.02
0.01 0.02 0.03 0.03 0.05 0.05 0.07 0.07 0.07 0.07 0.05 0.04 0.03 0.03 0.04 0.04 0.05 0.04 0.04 0.03 0.03 0.04 0.06 0.06 0.06 0.08 0.09 0.07 0.05 0.04 0.05 0.05 0.04 0.02 0.01 0.02 0.02 0.01 0.02 0.01 0.02 0.02 0.03
0.01 0.02 0.03 0.03 0.05 0.07 0.08 0.09 0.08 0.06 0.05 0.04 0.03 0.03 0.04 0.04 0.04 0.04 0.04 0.04 0.03 0.04 0.05 0.07 0.07 0.07 0.07 0.07 0.06 0.07 0.06 0.06 0.05 0.03 0.02 0.02 0.02 0.02 0.02 0.02 0.02 0.02 0.02
0.02 0.02 0.02 0.04 0.06 0.09 0.08 0.06 0.05 0.04 0.04 0.04 0.04 0.03 0.03 0.03 0.03 0.04 0.04 0.04 0.03 0.04 0.05 0.06 0.06 0.06 0.07 0.08 0.07 0.07 0.06 0.05 0.04 0.04 0.02 0.02 0.03 0.03 0.02 0.02 0.03 0.03 0.02
0.01 0.01 0.01 0.02 0.03 0.03 0.04 0.05 0.05 0.04 0.04 0.05 0.04 0.04 0.03 0.03 0.05 0.06 0.06 0.06 0.05 0.04 0.03 0.04 0.04 0.05 0.06 0.07 0.07 0.06 0.04 0.03 0.03 0.03 0.03 0.03 0.03 0.04 0.03 0.03 0.03 0.03 0.03
0.01 0.00 0.01 0.01 0.01 0.01 0.01 0.02 0.03 0.04 0.04 0.05 0.05 0.05 0.04 0.04 0.06 0.06 0.06 0.08 0.08 0.05 0.05 0.04 0.04 0.04 0.05 0.05 0.04 0.03 0.03 0.03 0.03 0.03 0.03 0.02 0.03 0.03 0.04 0.04 0.04 0.04 0.03
0.01 0.01 0.01 0.01 0.01 0.01 0.01 0.01 0.01 0.02 0.02 0.03 0.04 0.04 0.05 0.06 0.07 0.05 0.05 0.06 0.06 0.05 0.04 0.04 0.04 0.03 0.02 0.04 0.04 0.04 0.02 0.02 0.03 0.03 0.01 0.02 0.03 0.04 0.04 0.04 0.05 0.04 0.03
0.01 0.01 0.01 0.01 0.01 0.01 0.01 0.01 0.01 0.01 0.01 0.01 0.02 0.02 0.03 0.05 0.08 0.06 0.06 0.06 0.05 0.03 0.03 0.03 0.03 0.02 0.02 0.03 0.03 0.04 0.03 0.02 0.01 0.02 0.02 0.02 0.04 0.05 0.05 0.05 0.05 0.05 0.04
0.01 0.01 0.01 0.01 0.01 0.01 0.02 0.02 0.02 0.02 0.01 0.01 0.01 0.01 0.01 0.02 0.05 0.04 0.04 0.04 0.04 0.04 0.04 0.03 0.03 0.03 0.03 0.04 0.04 0.04 0.03 0.03 0.04 0.04 0.04 0.04 0.04 0.05 0.06 0.05 0.05 0.06 0.06
0.02 0.01 0.01 0.02 0.02 0.02 0.02 0.03 0.02 0.02 0.02 0.02 0.02 0.01 0.01 0.02 0.03 0.02 0.02 0.02 0.02 0.02 0.03 0.03 0.03 0.04 0.04 0.05 0.05 0.04 0.04 0.05 0.06 0.06 0.07 0.06 0.06 0.06 0.06 0.05 0.05 0.04 0.03
0.02 0.02 0.02 0.02 0.02 0.02 0.02 0.02 0.02 0.02 0.02 0.02 0.02 0.01 0.01 0.02 0.02 0.02 0.01 0.01 0.02 0.02 0.02 0.02 0.03 0.04 0.05 0.07 0.06 0.04 0.05 0.05 0.05 0.05 0.05 0.04 0.04 0.05 0.05 0.05 0.04 0.03 0.03
0.03 0.03 0.02 0.02 0.02 0.02 0.02 0.02 0.02 0.02 0.02 0.02 0.02 0.02 0.02 0.02 0.02 0.02 0.01 0.01 0.01 0.02 0.02 0.03 0.03 0.03 0.03 0.05 0.04 0.03 0.04 0.06 0.05 0.04 0.03 0.02 0.02 0.03 0.05 0.04 0.03 0.03 0.03
0.03 0.02 0.02 0.01 0.01 0.01 0.01 0.01 0.01 0.01 0.01 0.01 0.01 0.01 0.02 0.02 0.02 0.02 0.02 0.01 0.01 0.01 0.02 0.03 0.02 0.02 0.02 0.02 0.03 0.03 0.03 0.04 0.04 0.03 0.03 0.02 0.03 0.05 0.05 0.03 0.03 0.04 0.03
0.03 0.02 0.02 0.01 0.01 0.01 0.01 0.01 0.01 0.01 0.01 0.01 0.01 0.01 0.01 0.02 0.02 0.02 0.02 0.02 0.02 0.02 0.03 0.03 0.02 0.02 0.02 0.02 0.02 0.03 0.04 0.04 0.04 0.03 0.05 0.05 0.06 0.06 0.06 0.05 0.05 0.06 0.06
0.03 0.03 0.02 0.01 0.01 0.01 0.01 0.01 0.01 0.02 0.02 0.02 0.03 0.03 0.02 0.02 0.03 0.03 0.03 0.03 0.03 0.03 0.03 0.02 0.02 0.03 0.04 0.03 0.03 0.04 0.04 0.04 0.04 0.04 0.05 0.05 0.06 0.07 0.07 0.06 0.06 0.06 0.05
0.03 0.03 0.02 0.01 0.01 0.01 0.01 0.02 0.02 0.03 0.04 0.05 0.05 0.05 0.04 0.05 0.05 0.06 0.04 0.04 0.03 0.03 0.02 0.02 0.02 0.03 0.04 0.04 0.05 0.05 0.05 0.05 0.05 0.05 0.05 0.05 0.05 0.06 0.08 0.07 0.05 0.05 0.05
0.02 0.03 0.02 0.02 0.01 0.01 0.02 0.02 0.02 0.03 0.03 0.03 0.04 0.04 0.04 0.05 0.05 0.06 0.06 0.05 0.03 0.03 0.02 0.02 0.02 0.03 0.04 0.04 0.04 0.05 0.05 0.06 0.06 0.06 0.06 0.07 0.06 0.06 0.07 0.07 0.07 0.06 0.05
0.02 0.03 0.04 0.03 0.03 0.03 0.02 0.02 0.01 0.01 0.01 0.01 0.02 0.02 0.02 0.02 0.03 0.03 0.04 0.04 0.03 0.03 0.02 0.02 0.02 0.02 0.03 0.03 0.04 0.04 0.04 0.05 0.06 0.08 0.09 0.10 0.10 0.10 0.08 0.08 0.07 0.08 0.08
0.02 0.04 0.04 0.04 0.03 0.02 0.01 0.01 0.02 0.02 0.01 0.01 0.01 0.01 0.01 0.02 0.02 0.02 0.03 0.03 0.03 0.03 0.03 0.03 0.04 0.04 0.04 0.04 0.04 0.04 0.04 0.04 0.05 0.08 0.09 0.09 0.09 0.10 0.10 0.09 0.08 0.07 0.07
0.02 0.03 0.04 0.04 0.03 0.02 0.01 0.02 0.02 0.02 0.02 0.01 0.01 0.02 0.02 0.02 0.02 0.02 0.02 0.02 0.02 0.02 0.03 0.03 0.04 0.04 0.04 0.04 0.04 0.03 0.04 0.04 0.05 0.06 0.07 0.08 0.08 0.08 0.11 0.12 0.09 0.09 0.09
0.02 0.03 0.04 0.04 0.03 0.02 0.02 0.02 0.03 0.03 0.03 0.03 0.02 0.02 0.02 0.02 0.02 0.02 0.02 0.02 0.02 0.03 0.03 0.03 0.03 0.03 0.03 0.04 0.04 0.04 0.04 0.05 0.05 0.05 0.05 0.06 0.06 0.07 0.07 0.09 0.10 0.11 0.13
0.02 0.02 0.02 0.02 0.02 0.03 0.03 0.03 0.04 0.04 0.03 0.03 0.02 0.02 0.02 0.02 0.02 0.02 0.02 0.03 0.03 0.03 0.03 0.03 0.02 0.02 0.02 0.03 0.03 0.04 0.06 0.06 0.08 0.09 0.07 0.07 0.07 0.07 0.08 0.09 0.10 0.11 0.11
0.02 0.02 0.02 0.02 0.02 0.02 0.02 0.03 0.03 0.03 0.03 0.03 0.03 0.03 0.03 0.03 0.03 0.03 0.03 0.04 0.04 0.03 0.03 0.02 0.02 0.02 0.02 0.02 0.02 0.02 0.03 0.04 0.07 0.11 0.12 0.10 0.09 0.08 0.08 0.08 0.09 0.09 0.08
0.01 0.02 0.02 0.03 0.03 0.03 0.03 0.03 0.03 0.03 0.04 0.05 0.05 0.05 0.05 0.04 0.04 0.04 0.04 0.04 0.04 0.03 0.03 0.03 0.02 0.02 0.01 0.01 0.02 0.02 0.03 0.04 0.05 0.05 0.08 0.11 0.12 0.11 0.09 0.08 0.08 0.09 0.10
0.01 0.01 0.01 0.02 0.03 0.03 0.03 0.03 0.03 0.03 0.03 0.04 0.05 0.05 0.05 0.05 0.04 0.04 0.04 0.04 0.03 0.02 0.03 0.03 0.03 0.03 0.03 0.03 0.03 0.03 0.03 0.03 0.04 0.05 0.04 0.05 0.08 0.11 0.15 0.15 0.15 0.13 0.11
MSLP
1012.03 1012.55 1013.11 1013.66 1014.16 1014.58 1014.90 1015.15 1015.32 1015.45 1015.56 1015.67 1015.79 1015.92 1016.05 1016.15 1016.22 1016.25 1016.24 1016.20 1016.15 1016.13 1016.16 1016.26 1016.46 1016.75 1017.14 1017.61 1018.14 1018.71 1019.29 1019.86 1020.40 1020.89 1021.31 1021.65 1021.92 1022.12 1022.25 1022.33 1022.37 1022.39 1022.40
1012.20 1012.69 1013.23 1013.77 1014.28 1014.72 1015.08 1015.35 1015.55 1015.71 1015.83 1015.94 1016.05 1016.17 1016.28 1016.38 1016.46 1016.52 1016.55 1016.56 1016.57 1016.60 1016.66 1016.77 1016.96 1017.21 1017.54 1017.94 1018.40 1018.89 1019.42 1019.95 1020.47 1020.97 1021.41 1021.80 1022.11 1022.35 1022.52 1022.63 1022.70 1022.74 1022.77
1012.38 1012.85 1013.37 1013.90 1014.41 1014.87 1015.26 1015.57 1015.81 1016.00 1016.15 1016.28 1016.39 1016.50 1016.60 1016.69 1016.77 1016.84 1016.90 1016.95 1017.01 1017.08 1017.18 1017.32 1017.51 1017.75 1018.04 1018.38 1018.78 1019.21 1019.69 1020.18 1020.67 1021.16 1021.61 1022.01 1022.34 1022.61 1022.80 1022.93 1023.01 1023.05 1023.08
1012.53 1013.00 1013.50 1014.03 1014.55 1015.02 1015.44 1015.80 1016.09 1016.33 1016.52 1016.68 1016.81 1016.92 1017.02 1017.10 1017.18 1017.25 1017.33 1017.40 1017.50 1017.60 1017.74 1017.90 1018.10 1018.33 1018.59 1018.90 1019.24 1019.62 1020.04 1020.48 1020.94 1021.40 1021.84 1022.24 1022.58 1022.85 1023.05 1023.18 1023.27 1023.32 1023.35
1012.64 1013.11 1013.63 1014.16 1014.68 1015.18 1015.63 1016.03 1016.38 1016.68 1016.92 1017.12 1017.29 1017.42 1017.52 1017.61 1017.69 1017.76 1017.83 1017.92 1018.03 1018.17 1018.32 1018.50 1018.71 1018.93 1019.18 1019.45 1019.75 1020.07 1020.43 1020.82 1021.23 1021.64 1022.05 1022.43 1022.76 1023.03 1023.23 1023.37 1023.46 1023.51 1023.56
1012.69 1013.20 1013.73 1014.28 1014.81 1015.33 1015.82 1016.26 1016.67 1017.02 1017.33 1017.59 1017.80 1017.96 1018.08 1018.18 1018.26 1018.33 1018.40 1018.50 1018.62 1018.76 1018.93 1019.12 1019.33 1019.55 1019.77 1020.01 1020.26 1020.53 1020.83 1021.15 1021.50 1021.86 1022.22 1022.56 1022.87 1023.13 1023.33 1023.48 1023.57 1023.64 1023.71
1012.70 1013.26 1013.82 1014.39 1014.94 1015.48 1015.99 1016.48 1016.94 1017.35 1017.72 1018.03 1018.29 1018.50 1018.65 1018.76 1018.85 1018.92 1019.00 1019.10 1019.22 1019.37 1019.54 1019.74 1019.94 1020.15 1020.35 1020.55 1020.76 1020.97 1021.21 1021.46 1021.74 1022.03 1022.34 1022.64 1022.92 1023.16 1023.36 1023.52 1023.63 1023.72 1023.80
1012.68 1013.30 1013.91 1014.50 1015.07 1015.63 1016.17 1016.69 1017.18 1017.65 1018.06 1018.43 1018.74 1018.98 1019.17 1019.30 1019.40 1019.49 1019.57 1019.67 1019.79 1019.95 1020.13 1020.32 1020.52 1020.72 1020.90 1021.08 1021.24 1021.40 1021.58 1021.76 1021.97 1022.21 1022.45 1022.71 1022.95 1023.18 1023.37 1023.53 1023.66 1023.77 1023.87
1012.68 1013.36 1014.01 1014.63 1015.23 1015.80 1016.36 1016.90 1017.43 1017.92 1018.38 1018.78 1019.12 1019.40 1019.61 1019.77 1019.89 1019.98 1020.08 1020.18 1020.31 1020.47 1020.65 1020.85 1021.05 1021.24 1021.42 1021.57 1021.71 1021.83 1021.95 1022.09 1022.24 1022.42 1022.61 1022.82 1023.03 1023.23 1023.41 1023.57 1023.71 1023.83 1023.94
1012.71 1013.44 1014.14 1014.79 1015.42 1016.01 1016.59 1017.15 1017.69 1018.20 1018.67 1019.10 1019.46 1019.75 1019.98 1020.15 1020.29 1020.39 1020.49 1020.61 1020.75 1020.91 1021.10 1021.31 1021.51 1021.71 1021.88 1022.03 1022.15 1022.26 1022.35 1022.45 1022.57 1022.70 1022.85 1023.01 1023.19 1023.37 1023.53 1023.68 1023.81 1023.93 1024.04
1012.78 1013.56 1014.30 1014.99 1015.65 1016.27 1016.87 1017.44 1017.99 1018.51 1018.99 1019.41 1019.77 1020.07 1020.30 1020.48 1020.61 1020.72 1020.83 1020.95 1021.10 1021.27 1021.47 1021.68 1021.89 1022.10 1022.28 1022.44 1022.57 1022.67 1022.77 1022.85 1022.94 1023.05 1023.17 1023.31 1023.45 1023.59 1023.73 1023.86 1023.98 1024.08 1024.17
1012.88 1013.69 1014.48 1015.21 1015.91 1016.57 1017.19 1017.78 1018.34 1018.86 1019.34 1019.75 1020.10 1020.38 1020.60 1020.77 1020.89 1021.00 1021.11 1021.23 1021.37 1021.55 1021.75 1021.97 1022.19 1022.41 1022.62 1022.79 1022.94 1023.06 1023.17 1023.26 1023.35 1023.45 1023.55 1023.66 1023.77 1023.88 1023.99 1024.08 1024.17 1024.24 1024.30
1012.98 1013.82 1014.64 1015.42 1016.17 1016.87 1017.53 1018.15 1018.73 1019.25 1019.71 1020.11 1020.44 1020.70 1020.89 1021.04 1021.15 1021.24 1021.34 1021.45 1021.59 1021.76 1021.96 1022.18 1022.42 1022.65 1022.87 1023.07 1023.24 1023.39 1023.52 1023.63 1023.74 1023.83 1023.92 1024.02 1024.10 1024.18 1024.24 1024.30 1024.34 1024.37 1024.39
1013.05 1013.91 1014.76 1015.59 1016.38 1017.14 1017.85 1018.50 1019.10 1019.63 1020.09 1020.47 1020.78 1021.01 1021.18 1021.30 1021.39 1021.47 1021.55 1021.64 1021.77 1021.93 1022.12 1022.34 1022.58 1022.81 1023.04 1023.26 1023.46 1023.63 1023.78 1023.91 1024.03 1024.13 1024.22 1024.29 1024.35 1024.39 1024.42 1024.43 1024.43 1024.42 1024.40
1013.04 1013.91 1014.79 1015.66 1016.51 1017.32 1018.07 1018.77 1019.39 1019.94 1020.40 1020.78 1021.07 1021.28 1021.43 1021.53 1021.60 1021.66 1021.72 1021.81 1021.92 1022.07 1022.25 1022.45 1022.68 1022.91 1023.14 1023.36 1023.57 1023.75 1023.92 1024.06 1024.19 1024.29 1024.37 1024.43 1024.46 1024.47 1024.46 1024.44 1024.40 1024.35 1024.30
1012.93 1013.80 1014.70 1015.61 1016.50 1017.35 1018.16 1018.90 1019.55 1020.11 1020.58 1020.95 1021.24 1021.44 1021.58 1021.67 1021.73 1021.79 1021.85 1021.93 1022.04 1022.17 1022.34 1022.53 1022.74 1022.95 1023.17 1023.38 1023.58 1023.76 1023.92 1024.06 1024.18 1024.28 1024.34 1024.38 1024.39 1024.38 1024.34 1024.28 1024.22 1024.14 1024.08
1012.73 1013.59 1014.50 1015.42 1016.34 1017.24 1018.08 1018.84 1019.52 1020.10 1020.58 1020.95 1021.24 1021.44 1021.58 1021.68 1021.76 1021.82 1021.89 1021.98 1022.09 1022.23 1022.39 1022.57 1022.75 1022.95 1023.14 1023.33 1023.51 1023.67 1023.81 1023.93 1024.03 1024.11 1024.16 1024.18 1024.17 1024.13 1024.07 1024.00 1023.92 1023.84 1023.76
1012.45 1013.30 1014.20 1015.13 1016.06 1016.97 1017.83 1018.61 1019.30 1019.88 1020.37 1020.75 1021.04 1021.25 1021.41 1021.53 1021.63 1021.72 1021.82 1021.93 1022.06 1022.21 1022.38 1022.55 1022.73 1022.90 1023.07 1023.23 1023.37 1023.50 1023.62 1023.71 1023.78 1023.84 1023.86 1023.86 1023.84 1023.79 1023.72 1023.65 1023.56 1023.48 1023.42
1012.13 1012.96 1013.85 1014.77 1015.70 1016.60 1017.45 1018.22 1018.90 1019.48 1019.96 1020.35 1020.64 1020.87 1021.05 1021.20 1021.34 1021.47 1021.61 1021.76 1021.93 1022.11 1022.29 1022.47 1022.65 1022.81 1022.96 1023.09 1023.20 1023.30 1023.38 1023.44 1023.49 1023.51 1023.52 1023.51 1023.47 1023.42 1023.36 1023.29 1023.22 1023.16 1023.10
1011.83 1012.64 1013.51 1014.41 1015.31 1016.18 1017.00 1017.75 1018.40 1018.96 1019.42 1019.80 1020.10 1020.34 1020.54 1020.72 1020.90 1021.08 1021.27 1021.47 1021.68 1021.90 1022.11 1022.31 1022.49 1022.66 1022.80 1022.91 1023.01 1023.08 1023.13 1023.17 1023.19 1023.20 1023.20 1023.18 1023.15 1023.11 1023.06 1023.01 1022.96 1022.91 1022.87
1011.58 1012.38 1013.22 1014.08 1014.94 1015.77 1016.54 1017.24 1017.86 1018.38 1018.82 1019.17 1019.47 1019.72 1019.94 1020.15 1020.36 1020.58 1020.82 1021.06 1021.32 1021.57 1021.82 1022.05 1022.25 1022.43 1022.57 1022.69 1022.78 1022.85 1022.89 1022.92 1022.94 1022.94 1022.94 1022.92 1022.90 1022.88 1022.85 1022.83 1022.80 1022.77 1022.75
1011.42 1012.19 1012.99 1013.81 1014.62 1015.40 1016.11 1016.76 1017.32 1017.80 1018.21 1018.54 1018.82 1019.07 1019.30 1019.53 1019.76 1020.02 1020.28 1020.57 1020.86 1021.15 1021.42 1021.68 1021.91 1022.11 1022.28 1022.41 1022.52 1022.59 1022.65 1022.69 1022.72 1022.73 1022.74 1022.75 1022.75 1022.75 1022.75 1022.75 1022.74 1022.74 1022.73
1011.32 1012.06 1012.83 1013.60 1014.35 1015.07 1015.73 1016.31 1016.83 1017.27 1017.63 1017.95 1018.21 1018.45 1018.68 1018.92 1019.16 1019.43 1019.71 1020.01 1020.32 1020.63 1020.93 1021.21 1021.47 1021.70 1021.90 1022.06 1022.20 1022.31 1022.40 1022.47 1022.52 1022.57 1022.61 1022.64 1022.67 1022.69 1022.72 1022.74 1022.75 1022.76 1022.76
1011.24 1011.95 1012.68 1013.40 1014.10 1014.75 1015.35 1015.89 1016.36 1016.76 1017.10 1017.39 1017.64 1017.88 1018.10 1018.33 1018.58 1018.84 1019.12 1019.42 1019.73 1020.05 1020.36 1020.66 1020.94 1021.20 1021.43 1021.64 1021.82 1021.98 1022.11 1022.23 1022.32 1022.41 1022.48 1022.55 1022.60 1022.65 1022.70 1022.73 1022.76 1022.78 1022.78
1011.13 1011.80 1012.48 1013.15 1013.79 1014.39 1014.94 1015.43 1015.87 1016.24 1016.57 1016.85 1017.10 1017.33 1017.55 1017.78 1018.01 1018.27 1018.53 1018.82 1019.12 1019.42 1019.73 1020.04 1020.34 1020.62 1020.89 1021.15 1021.38 1021.59 1021.78 1021.95 1022.09 1022.22 1022.33 1022.42 1022.50 1022.57 1022.62 1022.66 1022.69 1022.71 1022.71
1010.93 1011.56 1012.19 1012.80 1013.38 1013.93 1014.43 1014.89 1015.30 1015.66 1015.98 1016.26 1016.52 1016.76 1016.99 1017.21 1017.44 1017.68 1017.93 1018.20 1018.48 1018.77 1019.07 1019.38 1019.69 1020.00 1020.30 1020.60 1020.88 1021.15 1021.40 1021.62 1021.81 1021.98 1022.12 1022.24 1022.33 1022.40 1022.45 1022.49 1022.51 1022.52 1022.51
Thickness
5786 5783 5780 5777 5775 5773 5770 5768 5767 5765 5763 5761 5759 5758 5756 5755 5754 5753 5752 5751 5748 5747 5746 5745 5743 5743 5742 5741 5741 5739 5737 5733 5726 5728 5730 5730 5729 5727 5724 5723 5721 5718 5714
5783 5779 5776 5773 5771 5768 5765 5764 5762 5760 5758 5756 5754 5752 5751 5750 5749 5747 5746 5745 5743 5741 5740 5738 5737 5737 5735 5733 5732 5732 5731 5729 5724 5720 5721 5722 5721 5721 5720 5718 5717 5715 5712
5779 5774 5771 5768 5765 5762 5760 5759 5757 5755 5753 5751 5749 5747 5746 5744 5743 5742 5740 5739 5738 5736 5734 5732 5730 5729 5726 5725 5724 5723 5723 5723 5721 5717 5716 5717 5716 5715 5713 5712 5711 5709 5708
5774 5769 5765 5762 5759 5757 5755 5753 5751 5750 5747 5746 5744 5743 5741 5740 5738 5737 5735 5733 5732 5730 5729 5727 5725 5722 5720 5718 5717 5716 5715 5714 5713 5711 5709 5708 5708 5707 5705 5702 5701 5702 5702
5768 5763 5760 5758 5755 5753 5751 5748 5746 5744 5742 5740 5738 5737 5736 5734 5733 5730 5728 5727 5724 5723 5722 5721 5719 5717 5715 5712 5711 5709 5707 5705 5704 5702 5700 5699 5698 5696 5695 5696 5694 5694 5695
5762 5758 5755 5752 5749 5747 5745 5743 5741 5738 5736 5734 5732 5730 5729 5728 5726 5723 5721 5720 5717 5716 5714 5713 5712 5710 5708 5706 5704 5702 5700 5698 5695 5693 5691 5690 5690 5690 5690 5689 5687 5685 5683
5756 5753 5750 5747 5744 5741 5739 5736 5734 5732 5730 5727 5726 5724 5721 5719 5717 5715 5713 5711 5710 5708 5706 5704 5704 5704 5701 5699 5697 5696 5694 5693 5691 5687 5684 5683 5684 5684 5683 5681 5680 5678 5677
5750 5747 5744 5741 5738 5735 5732 5729 5727 5725 5723 5720 5718 5717 5714 5712 5710 5707 5705 5703 5702 5700 5699 5697 5695 5694 5693 5691 5690 5688 5687 5686 5685 5683 5682 5681 5681 5680 5678 5676 5675 5674 5674
5743 5740 5738 5735 5731 5727 5724 5722 5720 5718 5716 5714 5712 5710 5708 5705 5702 5699 5697 5695 5694 5693 5692 5690 5688 5685 5684 5682 5681 5679 5678 5678 5679 5679 5678 5677 5677 5675 5673 5669 5667 5663 5662
5738 5735 5732 5729 5725 5721 5718 5715 5713 5710 5708 5707 5705 5703 5701 5698 5695 5692 5689 5687 5685 5684 5683 5682 5681 5678 5676 5674 5672 5671 5669 5670 5670 5671 5671 5671 5670 5669 5667 5664 5661 5657 5654
5732 5729 5725 5722 5718 5715 5712 5708 5705 5703 5700 5698 5696 5695 5694 5692 5688 5685 5681 5679 5678 5676 5676 5675 5674 5671 5669 5667 5665 5664 5663 5662 5662 5662 5663 5663 5663 5663 5661 5660 5658 5654 5650
5724 5720 5716 5713 5711 5709 5704 5701 5698 5694 5691 5689 5688 5687 5686 5685 5682 5679 5675 5672 5670 5668 5667 5667 5666 5663 5661 5659 5658 5658 5657 5655 5655 5655 5655 5655 5655 5655 5655 5654 5652 5650 5648
5715 5711 5709 5706 5703 5701 5697 5693 5689 5686 5683 5682 5681 5679 5678 5677 5674 5671 5668 5665 5663 5660 5660 5659 5657 5655 5654 5653 5652 5651 5649 5648 5647 5646 5647 5649 5650 5651 5649 5648 5646 5644 5642
5706 5702 5700 5698 5695 5693 5690 5687 5682 5679 5676 5674 5672 5671 5669 5667 5664 5662 5659 5657 5654 5652 5650 5650 5649 5648 5648 5647 5646 5644 5643 5643 5642 5641 5642 5644 5644 5643 5642 5641 5638 5636 5633
5698 5694 5692 5689 5687 5684 5682 5679 5676 5672 5669 5665 5664 5662 5659 5657 5654 5651 5649 5648 5646 5644 5641 5641 5641 5641 5641 5641 5641 5640 5638 5637 5636 5636 5636 5636 5635 5635 5634 5634 5632 5630 5626
5688 5685 5683 5681 5679 5677 5673 5670 5668 5665 5662 5658 5655 5651 5650 5648 5645 5643 5641 5640 5638 5636 5634 5635 5635 5635 5634 5634 5633 5633 5632 5631 5630 5629 5629 5629 5628 5627 5627 5627 5625 5623 5621
5680 5677 5675 5673 5670 5668 5665 5662 5658 5654 5651 5648 5645 5643 5640 5638 5636 5634 5632 5631 5630 5627 5627 5628 5628 5627 5627 5627 5626 5625 5624 5624 5623 5622 5622 5621 5621 5620 5620 5618 5617 5616 5615
5673 5670 5667 5664 5662 5659 5656 5653 5650 5647 5643 5641 5637 5634 5631 5629 5627 5625 5624 5622 5622 5621 5621 5622 5621 5620 5620 5618 5618 5617 5617 5616 5615 5614 5614 5614 5613 5613 5612 5611 5610 5609 5608
5666 5662 5659 5656 5653 5650 5647 5645 5641 5638 5635 5633 5631 5628 5624 5621 5619 5617 5615 5615 5616 5615 5614 5614 5613 5613 5612 5610 5609 5608 5608 5607 5605 5605 5605 5605 5606 5605 5605 5605 5604 5603 5601
5656 5653 5650 5647 5644 5641 5638 5635 5632 5629 5627 5625 5623 5621 5617 5614 5613 5611 5609 5608 5608 5608 5607 5606 5605 5604 5603 5602 5600 5599 5599 5598 5598 5597 5597 5597 5598 5598 5598 5598 5598 5597 5596
5648 5645 5641 5638 5635 5632 5629 5627 5624 5622 5620 5618 5616 5613 5609 5608 5607 5606 5605 5603 5601 5600 5599 5598 5597 5596 5595 5594 5592 5591 5591 5590 5590 5590 5590 5591 5591 5591 5591 5591 5591 5591 5590
5638 5636 5634 5631 5628 5624 5621 5619 5617 5615 5613 5610 5608 5605 5602 5602 5601 5600 5599 5598 5596 5595 5593 5592 5591 5590 5588 5587 5585 5584 5583 5582 5582 5582 5582 5583 5584 5585 5585 5584 5584 5584 5583
5630 5628 5626 5623 5620 5616 5614 5612 5609 5606 5604 5602 5600 5598 5595 5595 5594 5593 5592 5591 5589 5588 5587 5585 5583 5582 5581 5579 5578 5576 5575 5574 5574 5574 5575 5576 5577 5578 5578 5578 5577 5577 5576
5621 5620 5618 5616 5613 5610 5607 5604 5601 5598 5596 5594 5592 5591 5589 5587 5586 5586 5584 5583 5582 5581 5580 5579 5577 5575 5574 5572 5571 5569 5568 5566 5566 5567 5568 5568 5570 5571 5571 5571 5571 5571 5570
5614 5612 5610 5608 5605 5602 5599 5596 5593 5591 5588 5586 5584 5582 5581 5580 5578 5578 5577 5576 5575 5574 5573 5572 5570 5569 5568 5566 5563 5561 5560 5559 5559 5560 5561 5562 5563 5564 5565 5565 5565 5564 5563
5607 5605 5603 5601 5598 5595 5592 5589 5586 5583 5581 5579 5576 5574 5573 5571 5571 5570 5569 5568 5567 5567 5565 5564 5562 5561 5561 5559 5557 5554 5553 5553 5553 5553 5554 5555 5556 5557 5557 5558 5558 5557 5556